Dewpoint
69 69 69 69 69 69 68 68 68 68 68 70 71 71 72 72 73 73 73 73 73 73 74 74 75 75 75 75 75 75 75 74 74 73 72 72 71 70 69 67 66 65
69 70 70 69 69 70 69 69 69 69 68 69 70 71 72 72 72 72 73 73 73 73 74 74 75 75 75 75 75 74 74 74 73 73 72 72 71 71 70 68 67 66
70 69 69 69 69 69 69 69 69 69 69 69 70 71 72 73 72 72 72 73 73 73 74 74 74 75 75 75 74 74 74 73 73 73 73 72 72 71 70 69 67 66
70 69 69 69 69 69 70 70 69 69 70 70 69 71 72 72 72 72 72 74 72 73 74 74 74 75 75 75 74 74 74 74 74 73 73 72 72 71 70 69 68 67
70 69 69 69 69 69 69 70 69 69 69 70 70 71 72 72 72 72 72 73 72 72 73 74 74 74 75 75 74 74 74 73 73 73 73 72 72 72 71 69 68 67
70 70 70 69 69 69 69 69 70 70 69 69 70 71 72 72 72 72 72 72 72 72 73 73 74 74 75 75 74 74 74 73 73 73 73 72 72 72 71 70 68 68
69 69 69 69 69 69 69 69 70 70 70 69 70 71 72 72 72 72 72 72 72 72 72 73 73 74 74 74 74 74 74 74 73 73 73 72 72 72 72 70 69 68
69 69 69 69 69 69 69 69 69 70 71 71 70 71 72 72 72 72 72 72 72 72 72 73 73 73 74 74 74 74 74 74 73 73 72 72 72 72 72 71 70 69
69 69 69 69 69 69 69 69 70 70 71 71 70 70 72 72 72 72 72 72 72 72 72 72 73 73 73 74 74 74 74 73 73 73 73 72 72 72 72 71 70 69
69 69 69 69 69 69 69 69 69 70 71 71 71 71 71 72 72 72 72 72 72 72 72 72 73 73 73 73 73 73 73 73 73 73 73 73 72 72 72 71 71 70
69 69 69 69 69 69 69 69 69 70 70 71 71 71 71 71 72 72 72 72 72 72 72 72 72 73 73 73 73 73 73 73 73 73 73 73 73 72 73 72 71 70
69 69 69 69 69 69 69 69 69 69 70 70 71 71 71 71 71 72 72 72 72 72 72 72 72 72 73 73 73 73 73 73 73 73 73 73 73 73 72 72 71 71
69 69 69 69 69 69 69 69 69 69 69 69 70 71 71 71 71 71 72 72 72 72 72 72 72 72 72 73 73 73 73 73 73 73 73 73 73 73 73 72 72 72
69 69 69 69 70 70 70 70 70 70 70 69 70 69 70 71 71 72 72 72 72 72 72 72 72 72 72 72 73 73 73 73 73 73 73 73 73 73 73 73 73 72
70 70 70 70 70 70 70 70 70 70 70 70 70 69 69 69 70 71 72 72 72 72 72 72 72 72 72 72 72 72 73 73 73 73 73 73 73 73 73 73 73 73
70 70 70 70 70 70 70 70 70 70 70 70 70 70 69 69 69 70 71 71 72 72 72 72 72 72 69 65 67 72 73 73 73 73 73 73 72 72 72 73 73 73
70 70 70 70 70 70 70 70 70 70 70 70 70 70 70 70 70 69 69 70 71 71 71 72 72 72 66 64 64 65 71 73 72 73 73 73 73 72 72 72 72 73
70 70 70 70 70 70 70 70 70 70 70 70 70 70 70 70 70 69 69 69 70 71 71 71 71 67 64 63 63 63 65 72 72 72 72 73 73 73 72 72 72 72
71 71 71 71 70 70 70 70 70 70 70 69 69 70 70 70 70 70 69 69 69 69 70 71 71 66 63 62 62 62 62 66 72 72 72 72 72 72 72 72 72 72
71 71 71 71 71 71 71 70 70 70 70 69 69 70 70 70 70 70 70 70 69 69 70 70 71 66 62 61 61 61 61 63 70 72 72 72 72 72 72 72 72 72
71 71 71 71 71 71 71 71 70 70 70 70 69 69 69 69 69 69 70 70 70 70 70 70 70 65 62 60 59 59 60 61 69 71 71 72 72 72 72 72 72 72
71 71 71 71 71 71 71 71 71 70 70 70 70 69 69 69 69 69 69 70 70 70 70 69 70 63 61 60 59 59 60 65 68 70 71 71 71 72 72 72 72 72
72 72 71 71 71 71 71 71 71 71 70 70 70 70 69 69 69 69 69 69 70 70 70 70 70 65 60 59 58 58 59 67 69 70 71 71 71 72 72 72 72 72
72 72 72 72 71 71 71 71 71 71 71 71 70 70 69 69 69 69 69 69 69 69 70 69 69 66 59 57 57 57 61 68 69 70 70 71 71 71 72 72 72 71
73 73 72 72 72 72 71 71 71 71 71 71 70 70 70 69 69 69 68 69 69 69 67 69 69 67 59 57 56 56 61 68 69 70 70 70 71 71 71 72 72 71
73 73 73 72 72 72 72 72 71 71 71 71 71 70 70 69 69 69 68 68 68 69 69 69 69 70 67 57 56 55 57 68 70 70 70 70 70 71 71 71 72 72